TimeCDT,TemperatureF,Dew PointF,Humidity,Sea Level PressureIn,VisibilityMPH,Wind Direction,Wind SpeedMPH,Gust SpeedMPH,PrecipitationIn,Events,Conditions,WindDirDegrees,DateUTC
12:15 AM,77.0,73.4,89,29.70,10.0,South,11.5,16.1,N/A,Rain,Light Rain,190,2013-09-19 05:15:00
12:34 AM,69.8,64.4,83,29.72,10.0,NNW,11.5,20.7,N/A,Rain-Thunderstorm,Light Thunderstorms and Rain,330,2013-09-19 05:34:00
12:55 AM,69.8,64.4,83,29.71,10.0,ENE,4.6,-,N/A,Rain,Rain,70,2013-09-19 05:55:00
1:15 AM,69.8,64.4,83,29.66,10.0,NW,8.1,-,N/A,Rain,Light Rain,320,2013-09-19 06:15:00
1:34 AM,69.8,64.4,83,29.64,10.0,NNW,3.5,-,N/A,Thunderstorm,Clear,340,2013-09-19 06:34:00
1:54 AM,68.0,66.2,94,29.63,10.0,East,5.8,-,N/A,,Clear,100,2013-09-19 06:54:00
2:15 AM,66.2,66.2,100,29.65,10.0,West,4.6,-,N/A,,Clear,270,2013-09-19 07:15:00
2:34 AM,66.2,64.4,94,29.64,10.0,West,8.1,-,N/A,,Clear,270,2013-09-19 07:34:00
2:55 AM,66.2,64.4,94,29.64,10.0,NW,5.8,-,N/A,,Clear,310,2013-09-19 07:55:00
3:14 AM,66.2,64.4,94,29.64,10.0,Calm,Calm,-,N/A,,Clear,0,2013-09-19 08:14:00
3:34 AM,66.2,64.4,94,29.64,10.0,NW,4.6,-,N/A,,Clear,310,2013-09-19 08:34:00
3:54 AM,64.4,64.4,100,29.65,7.0,South,6.9,-,N/A,,Clear,170,2013-09-19 08:54:00
4:14 AM,64.4,64.4,100,29.63,10.0,South,8.1,-,N/A,,Clear,190,2013-09-19 09:14:00
4:34 AM,64.4,64.4,100,29.62,10.0,SSW,3.5,-,N/A,,Clear,200,2013-09-19 09:34:00
4:55 AM,64.4,64.4,100,29.66,10.0,SSW,5.8,-,N/A,,Clear,210,2013-09-19 09:55:00
5:16 AM,66.2,64.4,94,29.70,10.0,West,10.4,24.2,N/A,,Clear,280,2013-09-19 10:16:00
5:34 AM,66.2,64.4,94,29.70,10.0,SSE,6.9,-,N/A,,Clear,160,2013-09-19 10:34:00
5:54 AM,66.2,64.4,94,29.68,10.0,Calm,Calm,-,N/A,Rain,Light Rain,0,2013-09-19 10:54:00
6:14 AM,66.2,64.4,94,29.69,10.0,West,5.8,-,N/A,,Clear,270,2013-09-19 11:14:00
6:34 AM,66.2,64.4,94,29.71,10.0,WSW,4.6,-,N/A,,Scattered Clouds,250,2013-09-19 11:34:00
6:54 AM,66.2,64.4,94,29.69,10.0,SE,3.5,-,N/A,Rain-Thunderstorm,Light Thunderstorms and Rain,130,2013-09-19 11:54:00
7:14 AM,66.2,64.4,94,29.69,10.0,Calm,Calm,-,N/A,Rain,Light Rain,0,2013-09-19 12:14:00
7:34 AM,66.2,64.4,94,29.67,10.0,NW,5.8,-,N/A,,Scattered Clouds,310,2013-09-19 12:34:00
7:54 AM,66.2,64.4,94,29.68,10.0,WNW,12.7,-,N/A,,Clear,290,2013-09-19 12:54:00
8:14 AM,68.0,64.4,88,29.71,10.0,West,10.4,18.4,N/A,,Clear,280,2013-09-19 13:14:00
8:35 AM,66.2,64.4,94,29.75,10.0,South,8.1,-,N/A,Thunderstorm,Scattered Clouds,180,2013-09-19 13:35:00
8:54 AM,66.2,64.4,94,29.75,10.0,WSW,6.9,-,N/A,,Scattered Clouds,250,2013-09-19 13:54:00
9:14 AM,66.2,62.6,88,29.76,10.0,West,9.2,-,N/A,,Scattered Clouds,280,2013-09-19 14:14:00
9:34 AM,66.2,62.6,88,29.78,10.0,West,8.1,16.1,N/A,,Scattered Clouds,270,2013-09-19 14:34:00
9:54 AM,66.2,62.6,88,29.78,10.0,WNW,8.1,-,N/A,,Mostly Cloudy,290,2013-09-19 14:54:00
10:14 AM,66.2,62.6,88,29.78,10.0,WNW,10.4,-,N/A,,Mostly Cloudy,300,2013-09-19 15:14:00
10:34 AM,66.2,62.6,88,29.77,10.0,WNW,10.4,-,N/A,,Overcast,300,2013-09-19 15:34:00
10:54 AM,66.2,62.6,88,29.78,10.0,NW,9.2,-,N/A,,Mostly Cloudy,310,2013-09-19 15:54:00
11:14 AM,66.2,62.6,88,29.79,10.0,NW,9.2,-,N/A,,Mostly Cloudy,310,2013-09-19 16:14:00
11:35 AM,66.2,62.6,88,29.80,10.0,WNW,9.2,16.1,N/A,,Mostly Cloudy,290,2013-09-19 16:35:00
11:55 AM,66.2,62.6,88,29.81,10.0,WNW,10.4,-,N/A,,Mostly Cloudy,290,2013-09-19 16:55:00
12:15 PM,68.0,62.6,83,29.81,10.0,WNW,11.5,-,N/A,,Scattered Clouds,290,2013-09-19 17:15:00
12:34 PM,69.8,62.6,78,29.82,10.0,WNW,12.7,16.1,N/A,,Clear,290,2013-09-19 17:34:00
12:54 PM,71.6,60.8,69,29.82,10.0,WNW,13.8,23.0,N/A,,Clear,290,2013-09-19 17:54:00
1:15 PM,73.4,60.8,65,29.82,10.0,WNW,15.0,18.4,N/A,,Clear,300,2013-09-19 18:15:00
1:34 PM,73.4,59.0,61,29.82,10.0,NW,11.5,-,N/A,,Clear,310,2013-09-19 18:34:00
1:54 PM,75.2,59.0,57,29.82,10.0,WNW,9.2,19.6,N/A,,Clear,290,2013-09-19 18:54:00
2:15 PM,75.2,57.2,53,29.81,10.0,WNW,12.7,20.7,N/A,,Clear,290,2013-09-19 19:15:00
2:34 PM,75.2,57.2,53,29.81,10.0,WNW,10.4,16.1,N/A,,Clear,300,2013-09-19 19:34:00
2:55 PM,75.2,55.4,50,29.81,10.0,WNW,13.8,18.4,N/A,,Clear,290,2013-09-19 19:55:00
3:14 PM,77.0,55.4,47,29.81,10.0,WNW,12.7,17.3,N/A,,Clear,290,2013-09-19 20:14:00
3:34 PM,77.0,55.4,47,29.81,10.0,West,8.1,17.3,N/A,,Clear,280,2013-09-19 20:34:00
3:54 PM,77.0,53.6,44,29.81,10.0,West,11.5,19.6,N/A,,Clear,280,2013-09-19 20:54:00
4:14 PM,77.0,53.6,44,29.80,10.0,WNW,13.8,20.7,N/A,,Clear,290,2013-09-19 21:14:00
4:34 PM,75.2,53.6,47,29.81,10.0,WNW,17.3,23.0,N/A,,Clear,290,2013-09-19 21:34:00
4:54 PM,75.2,53.6,47,29.81,10.0,WNW,13.8,23.0,N/A,,Clear,290,2013-09-19 21:54:00
5:14 PM,71.6,53.6,53,29.82,10.0,West,16.1,21.9,N/A,,Clear,280,2013-09-19 22:14:00
5:35 PM,71.6,53.6,53,29.83,10.0,West,16.1,24.2,N/A,,Clear,280,2013-09-19 22:35:00
5:54 PM,71.6,53.6,53,29.84,10.0,WNW,10.4,18.4,N/A,,Clear,290,2013-09-19 22:54:00
6:14 PM,71.6,53.6,53,29.84,10.0,WNW,12.7,19.6,N/A,,Clear,290,2013-09-19 23:14:00
6:34 PM,71.6,53.6,53,29.85,10.0,WNW,20.7,25.3,N/A,,Scattered Clouds,290,2013-09-19 23:34:00
6:54 PM,68.0,53.6,60,29.85,10.0,West,12.7,25.3,N/A,,Scattered Clouds,280,2013-09-19 23:54:00
7:15 PM,66.2,53.6,64,29.86,10.0,West,11.5,19.6,N/A,,Clear,280,2013-09-20 00:15:00
7:34 PM,66.2,53.6,64,29.88,10.0,West,11.5,-,N/A,,Clear,280,2013-09-20 00:34:00
7:55 PM,64.4,55.4,73,29.88,10.0,WNW,18.4,23.0,N/A,,Clear,290,2013-09-20 00:55:00
8:14 PM,64.4,55.4,73,29.89,10.0,West,15.0,23.0,N/A,,Clear,280,2013-09-20 01:14:00
8:35 PM,62.6,53.6,72,29.90,10.0,West,17.3,21.9,N/A,,Clear,280,2013-09-20 01:35:00
8:54 PM,62.6,53.6,72,29.90,10.0,West,16.1,20.7,N/A,,Clear,280,2013-09-20 01:54:00
9:14 PM,60.8,53.6,77,29.90,10.0,West,10.4,19.6,N/A,,Clear,270,2013-09-20 02:14:00
9:34 PM,60.8,53.6,77,29.89,10.0,West,11.5,20.7,N/A,,Clear,280,2013-09-20 02:34:00
9:54 PM,60.8,53.6,77,29.89,10.0,West,11.5,17.3,N/A,,Scattered Clouds,280,2013-09-20 02:54:00
10:14 PM,60.8,53.6,77,29.89,10.0,West,11.5,18.4,N/A,,Scattered Clouds,270,2013-09-20 03:14:00
10:34 PM,60.8,53.6,77,29.89,10.0,West,10.4,17.3,N/A,,Scattered Clouds,270,2013-09-20 03:34:00
10:54 PM,60.8,53.6,77,29.89,10.0,West,11.5,23.0,N/A,,Scattered Clouds,270,2013-09-20 03:54:00
11:14 PM,60.8,53.6,77,29.90,10.0,West,13.8,20.7,N/A,,Mostly Cloudy,280,2013-09-20 04:14:00
11:34 PM,60.8,53.6,77,29.90,10.0,West,13.8,-,N/A,,Overcast,270,2013-09-20 04:34:00
11:54 PM,60.8,53.6,77,29.90,10.0,West,11.5,19.6,N/A,,Overcast,270,2013-09-20 04:54:00